This is the latest recevied weather packets stored in our database for station/object DO1SN-13. If no packets are shown the sender has not sent any weather packets the latest 10 day(s).
| Time | Temp. | Humidity | Pressure | Rain* | Wind** | Luminosity | Snow |
|---|---|---|---|---|---|---|---|
| 1788557287 | 27.78° C | - | 1018.3 hPa | 0 mm | - | - | - |
| 1788553280 | 27.78° C | - | 1018.1 hPa | 0 mm | - | - | - |
| 1788552916 | 27.78° C | - | 1018.1 hPa | 0 mm | - | - | - |
| 1788552916 | 27.78° C | - | 1018.1 hPa | 0 mm | - | - | - |
| 1788551095 | 28.89° C | - | 1018.1 hPa | 0 mm | - | - | - |
| 1788550366 | 28.89° C | - | 1018 hPa | 0 mm | - | - | - |
| 1788550002 | 28.89° C | - | 1017.9 hPa | 0 mm | - | - | - |
| 1788550002 | 28.89° C | - | 1017.9 hPa | 0 mm | - | - | - |
| 1788549637 | 28.89° C | - | 1018 hPa | 0 mm | - | - | - |
| 1788549274 | 28.89° C | - | 1017.9 hPa | 0 mm | - | - | - |
| 1788548545 | 28.89° C | - | 1017.8 hPa | 0 mm | - | - | - |
| 1788547452 | 29.44° C | - | 1017.7 hPa | 0 mm | - | - | - |
| 1788547088 | 28.89° C | - | 1017.7 hPa | 0 mm | - | - | - |
| 1788546359 | 30° C | - | 1017.6 hPa | 0 mm | - | - | - |
| 1788546359 | 30° C | - | 1017.6 hPa | 0 mm | - | - | - |
| 1788544902 | 30.56° C | - | 1017.4 hPa | 0 mm | - | - | - |
| 1788544902 | 30.56° C | - | 1017.4 hPa | 0 mm | - | - | - |
| 1788544538 | 30.56° C | - | 1017.3 hPa | 0 mm | - | - | - |
| 1788544171 | 30.56° C | - | 1017.3 hPa | 0 mm | - | - | - |
| 1788543442 | 31.11° C | - | 1017.2 hPa | 0 mm | - | - | - |
| 1788543442 | 31.11° C | - | 1017.2 hPa | 0 mm | - | - | - |
| 1788542714 | 31.67° C | - | 1017.2 hPa | 0 mm | - | - | - |
| 1788540893 | 32.22° C | - | 1017.1 hPa | 0 mm | - | - | - |
| 1788539800 | 32.78° C | - | 1016.9 hPa | 0 mm | - | - | - |
| 1788539436 | 32.78° C | - | 1016.9 hPa | 0 mm | - | - | - |
* Rain latest hour (hover to see other rain measurements)
** Current wind speed in m/s (hover to see current wind gust speed)